�������l�o���
Date,Time,MP-1(��Sv/h),MP-2(��Sv/h),MP-3(��Sv/h),MP-4(��Sv/h),MP-5(��Sv/h),MP-6(��Sv/h),MP-7(��Sv/h),MP-8(��Sv/h),����,����(m/s),���J
2022/09/29,00:00,0.574,0.825,0.529,1.025,0.722,0.339,0.591,0.556,���k��,5.5,��
2022/09/29,00:10,0.574,0.825,0.530,1.026,0.723,0.339,0.591,0.555,���k��,4.6,��
2022/09/29,00:20,0.573,0.826,0.528,1.023,0.722,0.340,0.591,0.554,��,3.4,��
2022/09/29,00:30,0.575,0.825,0.529,1.023,0.723,0.337,0.591,0.557,��,4.9,��
2022/09/29,00:40,0.575,0.826,0.529,1.024,0.724,0.340,0.591,0.556,��,5.6,��
2022/09/29,00:50,0.573,0.824,0.529,1.023,0.722,0.340,0.593,0.555,��,5.3,��
2022/09/29,01:00,0.574,0.825,0.528,1.025,0.723,0.339,0.592,0.556,��,4.8,��
2022/09/29,01:10,0.574,0.825,0.528,1.024,0.721,0.339,0.592,0.557,���k��,4.1,��
2022/09/29,01:20,0.574,0.825,0.529,1.024,0.721,0.339,0.592,0.556,���k��,4.0,��
2022/09/29,01:30,0.574,0.826,0.530,1.024,0.722,0.339,0.591,0.556,���k��,4.1,��
2022/09/29,01:40,0.574,0.824,0.530,1.023,0.723,0.340,0.591,0.556,��,4.0,��
2022/09/29,01:50,0.576,0.823,0.530,1.025,0.723,0.339,0.592,0.556,��,3.6,��
2022/09/29,02:00,0.575,0.823,0.528,1.023,0.722,0.338,0.591,0.556,��,5.0,��
2022/09/29,02:10,0.573,0.825,0.530,1.023,0.723,0.339,0.591,0.557,��,6.0,��
2022/09/29,02:20,0.574,0.825,0.531,1.024,0.723,0.339,0.591,0.557,���k��,5.7,��
2022/09/29,02:30,0.575,0.826,0.530,1.023,0.719,0.339,0.592,0.555,���k��,3.7,��
2022/09/29,02:40,0.573,0.824,0.530,1.022,0.722,0.340,0.591,0.556,��,3.0,��
2022/09/29,02:50,0.574,0.825,0.530,1.024,0.722,0.341,0.590,0.556,��,5.0,��
2022/09/29,03:00,0.574,0.822,0.528,1.025,0.721,0.339,0.592,0.555,��,4.7,��
2022/09/29,03:10,0.574,0.823,0.530,1.023,0.720,0.339,0.591,0.557,��,5.2,��
2022/09/29,03:20,0.572,0.822,0.528,1.021,0.720,0.339,0.593,0.557,��,4.7,��
2022/09/29,03:30,0.574,0.824,0.530,1.024,0.722,0.340,0.591,0.556,��,4.3,��
2022/09/29,03:40,0.574,0.823,0.530,1.024,0.722,0.337,0.591,0.558,���k��,4.3,��
2022/09/29,03:50,0.573,0.824,0.528,1.024,0.722,0.339,0.591,0.558,�k��,3.9,��
2022/09/29,04:00,0.574,0.824,0.528,1.024,0.721,0.339,0.591,0.557,���k��,6.2,��
2022/09/29,04:10,0.575,0.825,0.529,1.023,0.722,0.340,0.591,0.556,���k��,7.5,��
2022/09/29,04:20,0.574,0.825,0.530,1.024,0.720,0.338,0.592,0.556,���k��,7.1,��
2022/09/29,04:30,0.574,0.825,0.530,1.024,0.722,0.338,0.592,0.555,���k��,5.8,��
2022/09/29,04:40,0.572,0.824,0.530,1.024,0.719,0.340,0.590,0.556,���k��,6.5,��
2022/09/29,04:50,0.574,0.824,0.529,1.023,0.721,0.340,0.592,0.556,���k��,5.6,��
2022/09/29,05:00,0.574,0.822,0.528,1.025,0.722,0.339,0.591,0.555,���k��,6.4,��
2022/09/29,05:10,0.573,0.824,0.530,1.024,0.722,0.339,0.590,0.556,���k��,5.8,��
2022/09/29,05:20,0.573,0.823,0.529,1.025,0.722,0.339,0.592,0.555,���k��,4.4,��
2022/09/29,05:30,0.573,0.824,0.529,1.027,0.721,0.339,0.590,0.556,���k��,4.5,��
2022/09/29,05:40,0.572,0.823,0.530,1.025,0.719,0.339,0.591,0.556,���k��,5.1,��
2022/09/29,05:50,0.574,0.825,0.528,1.024,0.720,0.338,0.590,0.556,���k��,5.4,��
2022/09/29,06:00,0.573,0.824,0.530,1.025,0.720,0.340,0.592,0.555,���k��,5.5,��
2022/09/29,06:10,0.573,0.824,0.529,1.021,0.720,0.338,0.591,0.555,���k��,5.3,��
2022/09/29,06:20,0.572,0.823,0.532,1.024,0.722,0.339,0.591,0.556,���k��,5.9,��
2022/09/29,06:30,0.574,0.824,0.529,1.022,0.721,0.338,0.592,0.557,���k��,6.3,��
2022/09/29,06:40,0.571,0.823,0.529,1.021,0.721,0.338,0.591,0.557,���k��,6.7,��
2022/09/29,06:50,0.574,0.825,0.529,1.025,0.720,0.339,0.591,0.556,���k��,7.1,��
2022/09/29,07:00,0.574,0.823,0.530,1.022,0.722,0.339,0.592,0.556,���k��,6.3,��
2022/09/29,07:10,0.575,0.823,0.530,1.023,0.722,0.338,0.590,0.554,���k��,6.1,��
2022/09/29,07:20,0.573,0.825,0.531,1.024,0.722,0.339,0.592,0.556,���k��,5.8,��
2022/09/29,07:30,0.576,0.824,0.529,1.023,0.721,0.339,0.591,0.556,���k��,4.4,��
2022/09/29,07:40,0.574,0.824,0.529,1.023,0.723,0.338,0.593,0.557,���k��,4.7,��
2022/09/29,07:50,0.574,0.823,0.530,1.023,0.722,0.341,0.593,0.555,���k��,4.9,��
2022/09/29,08:00,0.574,0.824,0.529,1.027,0.721,0.339,0.592,0.556,�k��,4.3,��
2022/09/29,08:10,0.574,0.820,0.529,1.024,0.721,0.338,0.590,0.557,���k��,2.5,��
2022/09/29,08:20,0.573,0.821,0.529,1.025,0.722,0.341,0.590,0.555,�k��,2.3,��
2022/09/29,08:30,0.573,0.819,0.530,1.025,0.722,0.339,0.590,0.557,�k�k��,3.3,��
2022/09/29,08:40,0.572,0.820,0.530,1.026,0.721,0.339,0.592,0.558,�k�k��,3.3,��
2022/09/29,08:50,0.574,0.822,0.531,1.026,0.721,0.339,0.590,0.556,�k�k��,2.3,��
2022/09/29,09:00,0.576,0.820,0.532,1.027,0.720,0.339,0.589,0.556,�k��,2.6,��
2022/09/29,09:10,0.575,0.821,0.530,1.026,0.719,0.338,0.590,0.554,���k��,0.9,��
2022/09/29,09:20,0.575,0.823,0.531,1.026,0.722,0.338,0.590,0.553,�k��,1.2,��
2022/09/29,09:30,0.576,0.821,0.531,1.027,0.723,0.338,0.591,0.555,���쓌,0.6,��
2022/09/29,09:40,0.575,0.822,0.529,1.027,0.722,0.338,0.590,0.554,��,1.4,��
2022/09/29,09:50,0.574,0.823,0.530,1.027,0.723,0.338,0.592,0.554,��,1.7,��
2022/09/29,10:00,0.576,0.822,0.531,1.026,0.723,0.337,0.591,0.556,���쓌,1.4,��
2022/09/29,10:10,0.577,0.823,0.529,1.025,0.722,0.337,0.590,0.555,�쓌,2.3,��
2022/09/29,10:20,0.575,0.824,0.532,1.027,0.723,0.338,0.590,0.555,���쓌,2.3,��
2022/09/29,10:30,0.575,0.823,0.530,1.025,0.724,0.336,0.592,0.555,�쓌,2.3,��
2022/09/29,10:40,0.574,0.826,0.531,1.028,0.722,0.338,0.591,0.554,�쓌,2.6,��
2022/09/29,10:50,0.576,0.825,0.530,1.027,0.721,0.338,0.591,0.554,�쓌,2.8,��
2022/09/29,11:00,0.576,0.825,0.530,1.027,0.722,0.338,0.592,0.555,���쓌,3.1,��
2022/09/29,11:10,0.574,0.825,0.529,1.027,0.724,0.338,0.591,0.555,�쓌,2.3,��
2022/09/29,11:20,0.576,0.825,0.529,1.029,0.725,0.338,0.589,0.556,���쓌,2.5,��
2022/09/29,11:30,0.577,0.826,0.530,1.028,0.725,0.339,0.589,0.555,���쓌,2.5,��
2022/09/29,11:40,0.576,0.825,0.530,1.030,0.725,0.339,0.592,0.556,�쓌,3.2,��
2022/09/29,11:50,0.577,0.825,0.532,1.027,0.726,0.338,0.590,0.555,�쓌,2.9,��
2022/09/29,12:00,0.577,0.828,0.533,1.026,0.725,0.339,0.591,0.555,�쓌,4.0,��
2022/09/29,12:10,0.575,0.829,0.533,1.027,0.727,0.338,0.590,0.555,���쓌,3.6,��
2022/09/29,12:20,0.577,0.827,0.532,1.029,0.726,0.339,0.590,0.556,�쓌,3.4,��
2022/09/29,12:30,0.578,0.830,0.531,1.027,0.729,0.339,0.591,0.554,�쓌,3.6,��
2022/09/29,12:40,0.577,0.831,0.531,1.028,0.726,0.338,0.592,0.555,��쓌,3.7,��
2022/09/29,12:50,0.577,0.828,0.532,1.030,0.725,0.338,0.590,0.556,��쓌,5.2,��
2022/09/29,13:00,0.578,0.828,0.530,1.030,0.730,0.339,0.591,0.555,��쓌,4.5,��
2022/09/29,13:10,0.579,0.826,0.531,1.029,0.726,0.337,0.590,0.556,��쓌,4.8,��
2022/09/29,13:20,0.577,0.828,0.532,1.028,0.725,0.338,0.590,0.555,��쓌,5.2,��
2022/09/29,13:30,0.577,0.826,0.532,1.029,0.727,0.338,0.591,0.555,��쓌,4.4,��
2022/09/29,13:40,0.577,0.827,0.531,1.028,0.726,0.337,0.591,0.555,��쓌,4.8,��
2022/09/29,13:50,0.579,0.827,0.532,1.027,0.726,0.338,0.591,0.556,��쓌,4.7,��
2022/09/29,14:00,0.581,0.826,0.532,1.028,0.726,0.338,0.591,0.556,��쓌,4.4,��
2022/09/29,14:10,0.580,0.827,0.532,1.030,0.727,0.339,0.591,0.554,��쓌,4.5,��
2022/09/29,14:20,0.583,0.829,0.534,1.030,0.727,0.338,0.590,0.554,��쓌,4.3,��
2022/09/29,14:30,0.581,0.828,0.534,1.028,0.728,0.337,0.591,0.555,��쓌,4.2,��
2022/09/29,14:40,0.581,0.828,0.531,1.028,0.729,0.338,0.592,0.554,��,5.6,��
2022/09/29,14:50,0.582,0.828,0.532,1.028,0.727,0.338,0.591,0.557,��쓌,5.6,��
2022/09/29,15:00,0.582,0.829,0.533,1.029,0.728,0.339,0.591,0.555,��쓌,4.9,��
2022/09/29,15:10,0.579,0.831,0.531,1.030,0.730,0.338,0.591,0.555,��쓌,6.1,��
2022/09/29,15:20,0.579,0.831,0.532,1.029,0.726,0.340,0.591,0.553,��쓌,6.1,��
2022/09/29,15:30,0.578,0.829,0.533,1.030,0.728,0.340,0.592,0.554,��쓌,6.2,��
2022/09/29,15:40,0.577,0.828,0.531,1.027,0.727,0.339,0.590,0.555,��쓌,6.0,��
2022/09/29,15:50,0.577,0.830,0.531,1.028,0.728,0.338,0.590,0.555,��쓌,5.3,��
2022/09/29,16:00,0.578,0.830,0.531,1.032,0.728,0.338,0.590,0.554,��쓌,6.0,��
2022/09/29,16:10,0.576,0.832,0.532,1.030,0.729,0.338,0.590,0.553,��쓌,4.7,��
2022/09/29,16:20,0.576,0.830,0.531,1.032,0.729,0.338,0.591,0.556,��,5.0,��
2022/09/29,16:30,0.577,0.829,0.531,1.030,0.729,0.338,0.590,0.556,��,4.7,��
2022/09/29,16:40,0.576,0.832,0.532,1.030,0.728,0.338,0.590,0.554,��,5.1,��
2022/09/29,16:50,0.576,0.831,0.532,1.031,0.728,0.337,0.590,0.555,��,5.9,��
2022/09/29,17:00,0.576,0.833,0.531,1.028,0.727,0.338,0.592,0.557,��,7.3,��
2022/09/29,17:10,0.576,0.832,0.531,1.028,0.728,0.338,0.591,0.557,��,6.9,��
2022/09/29,17:20,0.577,0.833,0.530,1.030,0.727,0.341,0.593,0.556,��,6.3,��
2022/09/29,17:30,0.579,0.833,0.531,1.031,0.727,0.340,0.592,0.557,��,6.2,��
2022/09/29,17:40,0.578,0.834,0.531,1.033,0.728,0.341,0.593,0.557,��,5.9,��
2022/09/29,17:50,0.577,0.835,0.530,1.033,0.730,0.339,0.593,0.557,��,5.4,��
2022/09/29,18:00,0.578,0.833,0.531,1.031,0.730,0.341,0.592,0.557,��,6.2,��
2022/09/29,18:10,0.578,0.834,0.533,1.030,0.730,0.340,0.593,0.559,��,4.9,��
2022/09/29,18:20,0.580,0.833,0.536,1.029,0.730,0.341,0.593,0.557,��,5.5,��
2022/09/29,18:30,0.579,0.833,0.534,1.031,0.731,0.339,0.592,0.558,��,5.9,��
2022/09/29,18:40,0.579,0.834,0.534,1.030,0.731,0.341,0.592,0.557,��,5.9,��
2022/09/29,18:50,0.580,0.834,0.533,1.030,0.732,0.341,0.591,0.558,��,5.3,��
2022/09/29,19:00,0.579,0.832,0.533,1.030,0.731,0.339,0.591,0.557,��,5.3,��
2022/09/29,19:10,0.577,0.833,0.532,1.031,0.732,0.340,0.592,0.555,��,5.6,��
2022/09/29,19:20,0.579,0.833,0.534,1.029,0.731,0.341,0.591,0.556,��,5.2,��
2022/09/29,19:30,0.577,0.833,0.533,1.032,0.732,0.340,0.592,0.558,��쐼,4.7,��
2022/09/29,19:40,0.579,0.833,0.535,1.031,0.732,0.340,0.592,0.558,��쐼,4.3,��
2022/09/29,19:50,0.580,0.833,0.534,1.030,0.730,0.341,0.591,0.558,��쐼,4.0,��
2022/09/29,20:00,0.580,0.832,0.533,1.030,0.731,0.341,0.592,0.558,��쐼,3.9,��
2022/09/29,20:10,0.580,0.832,0.532,1.029,0.729,0.340,0.592,0.558,��쐼,4.0,��
2022/09/29,20:20,0.580,0.832,0.534,1.031,0.731,0.339,0.592,0.557,�쐼,4.4,��
2022/09/29,20:30,0.578,0.831,0.532,1.031,0.731,0.340,0.592,0.556,��쐼,4.3,��
2022/09/29,20:40,0.579,0.833,0.531,1.032,0.732,0.340,0.593,0.557,��쐼,3.9,��
2022/09/29,20:50,0.578,0.833,0.533,1.031,0.730,0.340,0.592,0.558,��쐼,2.9,��
2022/09/29,21:00,0.579,0.834,0.533,1.030,0.730,0.341,0.592,0.557,��쐼,3.0,��
2022/09/29,21:10,0.577,0.834,0.533,1.029,0.730,0.340,0.593,0.556,��쐼,2.2,��
2022/09/29,21:20,0.578,0.830,0.532,1.031,0.731,0.341,0.592,0.557,��쐼,2.6,��
2022/09/29,21:30,0.578,0.830,0.530,1.029,0.733,0.341,0.592,0.557,��쐼,3.4,��
2022/09/29,21:40,0.578,0.830,0.533,1.030,0.731,0.340,0.593,0.557,�쐼,3.9,��
2022/09/29,21:50,0.577,0.830,0.533,1.029,0.731,0.340,0.591,0.555,�쐼,4.3,��
2022/09/29,22:00,0.578,0.832,0.534,1.032,0.730,0.340,0.593,0.556,�쐼,4.2,��
2022/09/29,22:10,0.578,0.831,0.533,1.031,0.728,0.341,0.590,0.558,��쐼,3.7,��
2022/09/29,22:20,0.578,0.831,0.532,1.031,0.731,0.340,0.592,0.557,��쐼,4.0,��
2022/09/29,22:30,0.578,0.832,0.533,1.031,0.731,0.340,0.592,0.557,��쐼,3.1,��
2022/09/29,22:40,0.577,0.832,0.532,1.030,0.728,0.339,0.590,0.555,�쐼,3.7,��
2022/09/29,22:50,0.577,0.831,0.532,1.031,0.731,0.340,0.593,0.556,�쐼,3.1,��
2022/09/29,23:00,0.578,0.829,0.532,1.030,0.731,0.339,0.591,0.556,�쐼,1.7,��
2022/09/29,23:10,0.578,0.828,0.532,1.031,0.732,0.341,0.593,0.557,�쐼,1.7,��
2022/09/29,23:20,0.579,0.831,0.532,1.033,0.730,0.339,0.593,0.556,��쐼,0.9,��
2022/09/29,23:30,0.578,0.832,0.533,1.032,0.731,0.340,0.592,0.557,�쐼,2.0,��
2022/09/29,23:40,0.577,0.832,0.534,1.029,0.730,0.340,0.591,0.558,�쐼,2.5,��
2022/09/29,23:50,0.578,0.831,0.533,1.031,0.732,0.341,0.593,0.556,���쐼,1.4,��
